Regional Weather Roundup
Issued by NWS Charleston, SC

Current Version | Previous Version | Graphics & Text | Print | Product List | Glossary On
Versions: 1 2 3 4 5 6 7 8 9 10 11 12 13 14 15 16 17 18 19 20 21 22 23 24 25 26 27 28 29 30 31 32 33 34 35 36 37 38 39 40 41 42 43 44 45 46 47 48 49 50
000 ASUS42 KCHS 241628 RWRCHS REGIONAL WEATHER ROUNDUP NATIONAL WEATHER SERVICE CHARLESTON SC 1200 PM EDT SUN JUL 24 2016 NOTE: "FAIR" INDICATES FEW OR NO CLOUDS BELOW 12,000 FEET WITH NO SIGNIFICANT WEATHER AND/OR OBSTRUCTIONS TO VISIBILITY. NOT ALL STATIONS ARE QUALITY CONTROLLED. USE DATA WITH CAUTION... ESPECIALLY DEWPOINT OBSERVATIONS. SCZ027-030-031-034>040-042>050-241700- ...SOUTHEAST SOUTH CAROLINA... CITY SKY/WX TMP DP RH WIND PRES REMARKS N CHARLESTON MOSUNNY 91 74 57 SW5 30.05R HX 100 WATERFRONT PRK N/A 88 76 67 SW6 30.03R HX 99 MOUNT PLEASANT FAIR 90 75 62 CALM 30.05S HX 100 JOHNS ISLAND FAIR 91 79 66 SW8 30.05S HX 107 PINOPOLIS N/A 84 75 74 CALM 29.97S HX 92 MONCKS CORNER FAIR 88 70 55 CALM 30.05R HX 92 SUMMERVILLE FAIR 91 73 55 S6 30.05 HX 100 BEAUFORT MCAS SUNNY 94 73 50 S5 30.05S HX 103 BEAUFORT ARPT FAIR 90 73 58 S6 30.05S HAZE HX 98 HILTON HEAD IS MOSUNNY 97 75 49 SE7 30.05F HX 109 WALTERBORO MOSUNNY 93 72 49 W6 30.06S HX 100 ALLENDALE FAIR 91 72 52 CALM 30.04S HX 98 ...SOUTHERN MIDLANDS AND PEE DEE... CITY SKY/WX TMP DP RH WIND PRES REMARKS GEORGETOWN FAIR 88 73 62 CALM 30.06S HX 96 KINGSTREE FAIR 90 72 55 SW5 30.04F HX 96 ORANGEBURG SUNNY 91 72 53 W6 30.05S HX 98 BARNWELL NOT AVBL AIKEN FAIR 90 70 51 SW7 30.09S HX 95 MANNING FAIR 90 72 55 W5 30.05S HX 96 COLUMBIA MOSUNNY 94 70 45 SW7 30.04S HX 100 SUMTER SUNNY 90 72 55 W3 30.03S HAZE HX 97 FLORENCE SUNNY 90 74 59 VRB3 30.04S HX 99 MYRTLE BEACH SUNNY 90 73 58 SE7 30.06R HX 98 N MYRTLE BEACH SUNNY 88 78 72 S8 30.04S HX 101 $$ GAZ063-065-086>088-099>101-113>116-118-119-134>141-150-241700- ...SOUTHEAST GEORGIA... CITY SKY/WX TMP DP RH WIND PRES REMARKS SAVANNAH ARPT MOSUNNY 93 73 52 SW7 30.05F HX 102 HUNTER AAF SUNNY 91 79 66 W7 30.02F HX 107 FORT STEWART SUNNY 92 73 54 CALM 30.03F HX 100 STATESBORO SUNNY 92 75 57 SW6 30.06S HX 103 SYLVANIA NOT AVBL CLAXTON FAIR 93 75 55 S3 30.05S HX 104 ...CSRA...CENTRAL AND FAR SOUTHEAST GEORGIA... CITY SKY/WX TMP DP RH WIND PRES REMARKS THOMSON MOSUNNY 94 73 50 W8 30.10F HX 102 AUGUSTA-BUSH SUNNY 95 70 44 W8 30.03F HX 101 AUGUSTA-DANIEL SUNNY 94 72 48 VRB3 30.06S HX 102 SWAINSBORO PTSUNNY 91 70 49 NE3 30.06F HX 97 VIDALIA PTSUNNY 93 70 46 NW3 30.06F HX 99 EASTMAN FAIR 92 60 33 CALM 30.09S HX 91 HAZLEHURST PTSUNNY 92 75 58 CALM 30.05F HX 102 ALMA SUNNY 91 75 59 CALM 30.06F HX 101 WAYCROSS MOSUNNY 94 77 57 CALM 30.05F HX 109 JESUP FAIR 93 79 62 NW3 30.05F HX 110 BAXLEY FAIR 91 79 66 CALM 30.06S HX 107 BRUNSWICK MOSUNNY 91 79 66 W5 30.06F HX 107 SAINT SIMONS SUNNY 89 73 59 VRB6 30.06S HX 97 $$ SCZ027-028-034-036>038-045-046-048>050-GAZ119-141-241700- ...LAKE AND SUPPLEMENTAL COASTAL OBSERVATIONS... STATION/POSITION TIME TEMP WIND PRES WAVE SWELL AIR SEA DIR/SP/G HT/PER HT/PER/DIR (UTC) (F) (DEG/KT/KT) (MB) (FT/S) (FT/S/D) WINYAH BAY 1500 85 290/ 6 1017.0R LAKE MURRAY 1500 88 190/ 4/ 7 1016.6S ACE BASIN NERRS 1500 88 240/ 2 1018.0S FORT PULASKI 1600 88 87 200/ 4/ 6 1017.9F SAPELO ISLAND 1600 91 230/ 2 1018.0S $$ ANZ835-935-AMZ111-154-330-350-352-354-370-450-454-472-241700- ...C-MAN AND BUOY OBSERVATIONS... STATION/POSITION TIME TEMP WIND PRES WAVE SWELL AIR SEA DIR/SP/G HT/PER HT/PER/DIR (UTC) (F) (DEG/KT/KT) (MB) (FT/S) (FT/S/D) BUOY 41004 1550 85 86 220/ 10/ 12 1017.3R 3/ 9 2/130/ 9 BUOY 41008 1550 84 86 200/ 8/ 10 1017.7R 2/ 9 2/ 80/ 9 FOLLY BEACH CMAN 1600 85 200/ 9/ 11 1017.8S CAPERS NEARSHORE 1608 84 84 240/ 12/ 16 1017.5R FRIPP NEARSHORE 1608 85 86 240/ 10/ 14 1017.2S STATION/POSITION TIME TEMP WIND PRES WAVE SWELL AIR SEA DIR/SP/G HT/PER HT/PER/DIR (UTC) (F) (DEG/KT/KT) (MB) (FT/S) (FT/S/D) 5E ST. MARYS GA 1601 87 N/A 2/ 9 FRYING PAN BUOY 1600 84 85 220/ 6/ 8 1017.5S BUOY 41025 1550 84 86 230/ 12/ 14 1017.3R 2/ 9 2/120/ 9 CAPE LOOKOUT NC 1600 87 220/ 11/ 13 1017.1S BUOY 41002 1550 84 86 CALM / 2 1019.1R 2/ 9 2/100/ 9 BUOY 41010 1520 84 87 50/ 4/ 6 1018.8R ST AUGUSTINE FL 1600 83 85 80/ 6/ 6 1019.0S $$

USA.gov is the U.S. government's official web portal to all federal, state and local government web resources and services.